#timestamp,LO_Frequency,Hit,StdDev 
1561467615.3,286047001.6,N
1561467635.2,286047001.4,N
1561467655.9,286047002.6,N
1561467675.7,286047001.1,N
1561467695.6,286047000.6,N
1561467715.4,286047000.9,N
1561467735.2,286047000.4,N
1561467755.1,286046999.7,N
1561467756.0,286046999.7,N
1561467775.8,286047000.3,N
1561467795.6,286046998.7,N
1561467815.5,286046998.4,N
1561467835.3,286046998.8,N
1561467855.1,286046997.2,N
1561467875.9,286046997.3,N
1561467895.7,286046996.6,N
1561467915.5,286046998.2,N
1561467935.4,286047000.8,N
1561467955.2,286046997.2,N
1561467975.0,286046995.0,N
1561467975.9,286046995.0,N
1561467995.8,286046997.3,N
1561468015.6,286046999.4,N
1561468035.4,286046998.6,N
1561468055.3,286046998.7,N
1561468075.1,286046998.8,N
1561468095.8,286046998.9,N
1561468115.7,286046997.8,N
1561468135.5,286046999.6,N
1561468155.3,286046998.9,N
1561468175.2,286047001.2,N
1561468195.0,286046999.9,N
1561468195.9,286046999.9,N
1561468215.7,286047000.4,N
1561468235.6,286047001.0,N
1561468255.4,286046999.9,N
1561468275.2,286047002.6,N
1561468295.1,286047004.1,N
1561468296.0,286047004.1,N
1561468315.8,286047003.2,N
1561468335.6,286047005.2,N
1561468355.5,286047007.2,N
1561468375.3,286047003.8,N
1561468395.1,286046999.9,N
1561468415.9,286047000.4,N
1561468435.7,286046999.2,N
1561468455.5,286046997.2,N
1561468475.4,286046994.5,N
1561468495.2,286046995.8,N
1561468515.0,286046992.6,N
1561468516.0,286046992.6,N
1561468535.8,286046989.5,Y
1561468555.6,286046990.0,P
1561468575.5,286046989.9,N
1561468595.3,286046989.9,N
1561468615.1,286046986.9,Y
1561468635.9,286046998.9,P
1561468655.7,286046998.8,N
1561468675.5,286047000.1,N
1561468695.4,286047000.3,N
1561468715.2,286047002.4,N
1561468735.0,286047002.7,N
1561468735.9,286047002.7,N
1561468755.8,286047002.5,N
1561468775.6,286047002.4,N
1561468795.4,286047000.5,N
1561468815.3,286047001.0,N
1561468835.1,286047002.3,N
1561468836.0,286047002.3,N
1561469045.6,286046994.2,E
1561469055.5,286046995.2,N
1561469075.3,286046999.1,P
1561469095.2,286046998.5,N
1561469115.0,286046998.1,N
1561469115.9,286046998.1,N
1561469135.8,286046999.9,N
1561469155.6,286046999.3,N
1561469175.4,286046995.4,Y
1561469195.3,286046998.5,P
1561469215.1,286046996.9,P
1561469235.8,286046996.2,P
1561469255.7,286046994.1,Y
1561469275.5,286046994.0,P
1561469295.4,286046997.5,N
1561469315.2,286046998.3,N
1561469335.0,286046998.4,N
1561469335.9,286046998.4,N
1561469355.8,286046997.1,N
1561469375.6,286046997.9,N
1561469395.5,286047011.9,Y
1561469415.3,286046997.7,P
1561469435.1,286046995.5,P
1561469455.9,286046996.1,P
1561469475.7,286046990.1,Y
1561469495.6,286046995.9,P
1561469515.4,286046999.5,N
1561469535.2,286046997.3,N
1561469555.1,286046999.3,N
1561469556.0,286046999.3,N
1561469575.8,286047001.2,N
1561469595.6,286047000.2,N
1561469615.5,286047001.4,N
1561469635.3,286047003.8,N
1561469655.2,286047003.5,N
1561469675.9,286047001.4,N
1561469695.7,286047001.4,N
1561469715.6,286047003.8,N
1561469735.4,286047003.5,N
1561469755.2,286047002.9,N
1561469775.1,286047006.7,N
1561469776.0,286047006.7,N
1561469795.8,286047009.0,N
1561469815.7,286047008.5,N
1561469835.5,286047008.6,N
1561469855.3,286047012.2,Y
1561469875.2,286047008.2,P
1561469895.0,286047006.2,N
1561469895.9,286047006.2,N
1561469915.7,286047010.7,Y
1561469935.6,286047003.2,P
1561469955.4,286047001.3,N
1561469975.3,286047000.6,N
1561469995.1,286047000.7,N
1561469996.0,286047000.7,N
1561470015.8,286046998.6,N
1561470035.7,286047001.0,N
1561470055.5,286047000.1,N
1561470075.3,286047001.5,N
1561470095.2,286047003.2,N
1561470115.0,286047004.4,N
1561470115.9,286047004.4,N
1561470135.8,286047001.5,N
1561470155.6,286047001.9,N
1561470175.4,286047003.9,N
1561470195.3,286047003.9,N
1561470215.1,286047004.1,N
1561470235.8,286047003.5,N
1561470255.7,286047004.5,N
1561470275.5,286047003.7,N
1561470295.4,286047002.4,N
1561470315.2,286046999.8,N
1561470335.0,286046996.8,N
1561470335.9,286046996.8,N
1561470355.8,286046995.3,N
1561470375.6,286046997.9,N
1561470395.4,286046995.1,N
1561470415.3,286046995.4,N
1561470435.1,286046995.3,N
1561470455.9,286046997.6,N
1561470475.7,286046995.3,N
1561470495.5,286046997.8,N
1561470515.4,286046997.3,N
1561470535.2,286047000.3,N
1561470555.0,286047001.4,N
1561470555.9,286047001.4,N
1561470575.8,286047005.8,N
1561470595.6,286047008.8,N
1561470615.5,286047009.6,N
1561470635.3,286047012.2,Y
1561470655.1,286047010.2,P
1561470675.9,286047010.0,N
1561470695.7,286047011.8,N
1561470715.5,286047012.0,N
1561470735.4,286047010.5,N
1561470755.2,286047009.1,N
1561470775.1,286047007.6,N
1561470776.0,286047007.6,N
1561470795.8,286047003.3,N
1561470815.6,286047003.0,N
1561470835.5,286047004.0,N
1561470855.3,286047001.4,N
1561470875.1,286047004.4,N
1561470895.9,286047005.9,N
1561470915.7,286047006.3,N
1561470935.5,286047008.3,N
1561470955.4,286047007.2,N
1561470975.2,286047005.0,N
1561470995.1,286047007.3,N
1561470996.0,286047007.3,N
1561471015.8,286047008.9,N
1561471035.6,286047009.7,Y
1561471055.5,286047003.0,P
1561471075.3,286047005.4,N
1561471095.2,286047005.1,P
1561471115.9,286047005.7,Y
1561471135.7,286047000.2,P
1561471155.6,286047004.3,N
1561471175.4,286047004.2,N
1561471195.3,286047005.2,N
